Дата Пункты Температура Давл., мм. Влажн., % Ветер Погодные явления
Воздуха Воды Направл. Скорость
21.09.14 08:00 Одесса 18.0 20.0 757 75 Пд-С 5 21 час
21.09.14 05:00 Одесса 18.0 21.0 757 72 Пд-С 4 18 часов
21.09.14 02:00 Одесса 18.0 21.0 758 74 Пд-С 4 15 часов
21.09.14 11:00 Одесса 19.0 20.0 759 66 Пд-С 5 12 часов
21.09.14 08:00 Одесса 18.0 20.0 759 72 Пд-С 6 09 часов
21.09.14 05:00 Одесса 19.0 20.0 759 76 Пд-С 6 06 часов
21.09.14 02:00 Одесса 19.0 20.0 759 71 Пд-С 4 03 часа
20.09.14 08:00 Одесса 16.0 20.0 761 58 Пд-З 2 21 час
20.09.14 05:00 Одесса 19.0 21.0 762 48 Пд 2 18 часов
20.09.14 02:00 Одесса 20.0 21.0 762 52 Пд-С 3 15 часов
20.09.14 11:00 Одесса 20.0 20.0 763 63 С 4 12 часов
20.09.14 08:00 Одесса 16.0 20.0 763 64 Пн 2 09 часов
20.09.14 05:00 Одесса 12.0 20.0 763 74 Пн-З 1 06 часов
20.09.14 02:00 Одесса 14.0 20.0 763 81 Пн-С 1 03 часа
19.09.14 08:00 Одесса 15.0 20.0 764 43 Пн-З 1 21 час
19.09.14 05:00 Одесса 20.0 20.0 763 29 Пд 1 18 часов
19.09.14 02:00 Одесса 21.0 20.0 764 36 С 2 15 часов
19.09.14 11:00 Одесса 19.0 20.0 765 41 Пн-С 3 12 часов
19.09.14 08:00 Одесса 15.0 20.0 765 54 Пн 4 09 часов
19.09.14 05:00 Одесса 11.0 21.0 764 62 Пн-З 2 06 часов
Количество строк
421 422 423 424 425 426
Page 423 of 426